Location: Brantley
(31.5822°N, 86.2569°W)
Time: 03:08:47
(UTC+00:00)

Courier 1B Rocket - Pass Details

Date: 21 February 2026
Orbit: 920 x 1201 km, 28.2° (Epoch: 7 March)

Event Time Altitude Azimuth Distance (km) Brightness Sun altitude
Rises 23:46:29 0° 250° (WSW) 3,573 10.4 -2.8°
Reaches altitude 10° 23:49:09 10° 246° (WSW) 2,613 9.0 -3.4°
Maximum altitude 23:55:14 56° 170° (S) 1,077 5.3 -4.7°
Drops below altitude 10° 00:01:21 10° 93° (E) 2,628 6.6 -5.9°
Enters shadow 00:02:12 - 91° (E) 2,932 6.8 -6.1°
Sets 00:04:03 0° 89° (E) 3,595 - -6.5°
